Location: Peterborough
(44.3091°N, 78.3197°W)
Time: 00:20:26
(UTC-04:00)

Vanguard 1 Rocket - Pass Details

Date: 28 March 2023
Orbit: 655 x 4220 km, 34.3° (Epoch: 02 June)

Event Time Altitude Azimuth Distance (km) Brightness Sun altitude
Enters shadow 03:35:47 - 273° (W) 7,507 11.7 -33.7°
Exits shadow 03:59:35 34° 169° (S) 2,461 9.3 -30.6°
Drops below altitude 10° 04:04:15 10° 138° (SE) 3,271 10.2 -30.0°
Sets 04:06:36 0° 131° (SE) 3,941 10.8 -29.7°
